Regional Weather Roundup
Issued by NWS State College, PA

Home | Current Version | Previous Version | Text Only | Print | Product List | Glossary On
Versions: 1 2 3 4 5 6 7 8 9 10 11 12 13 14 15 16 17 18 19 20 21 22 23 24 25 26 27 28 29 30 31 32 33 34 35 36 37 38 39 40 41 42 43 44 45 46 47 48 49 50
000
ASUS41 KCTP 011810
RWRCTP

REGIONAL WEATHER ROUNDUP
NATIONAL WEATHER SERVICE STATE COLLEGE PA
200 PM EDT WED APR 01 2015

Note: "fair" indicates few or no clouds below 12,000 feet with no
significant weather and/or obstructions to visibility.

* = STATION THAT DOES NOT REPORT PRECIPITATION /E.G. RAIN...SNOW...ETC/
    THUNDER OR FOG.

PAZ002>004-007>009-013>016-020>023-029>032-011900-
WESTERN PENNSYLVANIA

CITY           SKY/WX    TMP DP  RH WIND       PRES   REMARKS
ERIE           CLOUDY    45  29  53 VRB3      30.17R
MEADVILLE      CLOUDY    44  30  57 VRB5      30.15S
FRANKLIN*      CLOUDY    46  28  49 W10       30.16F
NEW CASTLE     FAIR      51  30  44 SW13      30.17S
BEAVER COUNTY  PTSUNNY   50  25  37 CALM      30.15S
BUTLER*        PTSUNNY   52  27  37 W6        30.17F
PITTSBURGH INT PTSUNNY   53  25  33 NW9       30.15S
PITTSBURGH     PTSUNNY   51  21  30 CALM      30.14F
INDIANA*       CLOUDY    46  28  49 W7G13     30.19S
LATROBE        PTSUNNY   48  27  43 W7        30.18S
WASHINGTON CO* MOSUNNY   54  27  35 S5        30.16F
$$

PAZ004>006-010>012-017>019-024>028-033>037-041-042-045-046-049>053-011900-
CENTRAL PENNSYLVANIA

CITY           SKY/WX    TMP DP  RH WIND       PRES   REMARKS
BRADFORD       CLOUDY    33  25  72 W6        30.12R
DUBOIS         CLOUDY    40  30  67 W7        30.14R
CLEARFIELD     CLOUDY    42  26  53 NW9       30.15R
JOHNSTOWN      PTSUNNY   44  26  49 NW10G21   30.12R
ALTOONA        CLOUDY    48  26  42 NW13      30.14R
STATE COLLEGE  CLOUDY    43  25  49 NW9       30.15R
WILLIAMSPORT   SUNNY     43  24  47 W9        30.14S
SELINSGROVE    SUNNY     46  27  47 VRB3      30.15S
FT INDIANTOWN  SUNNY     50  17  27 W5G17     30.12S
CAPITAL CITY   SUNNY     52  22  30 N10       30.14S
HARRISBURG     MOSUNNY   52  22  30 N10G22    30.13S
YORK           SUNNY     53  23  31 N14       30.14R
$$

PAZ038>040-043-044-047-048-054-055-060>062-067>071-011900-
EASTERN PENNSYLVANIA

CITY           SKY/WX    TMP DP  RH WIND       PRES   REMARKS
SCRANTON       PTSUNNY   43  25  49 W10       30.11S
MOUNT POCONO   MOSUNNY   37  20  50 NW15G23   30.05S
ALLENTOWN      SUNNY     47  25  42 N12       30.11F
QUAKERTOWN*    CLEAR     46  25  42 N8G16     30.12S
READING        SUNNY     52  18  26 NW15      30.11F
LANCASTER      SUNNY     51  20  29 NW15G22   30.12S
COATESVILLE    PTCLDY    48  27  43 NW9       30.12S
POTTSTOWN      SUNNY     50  24  36 W7        30.12F
BLUE BELL      SUNNY     50  28  43 W6        30.10F
DOYLESTOWN     SUNNY     48  24  39 NW9G17    30.10F
WILLOW GROVE   NOT AVBL
NORTH PHILA    SUNNY     52  23  32 W14       30.12F
PHILADELPHIA   MOSUNNY   52  23  32 NW14G21   30.12F
$$



USA.gov is the U.S. government's official web portal to all federal, state and local government web resources and services.